CST,Max TemperatureF,Mean TemperatureF,Min TemperatureF,Max Dew PointF,MeanDew PointF,Min DewpointF,Max Humidity, Mean Humidity, Min Humidity, Max Sea Level PressureIn, Mean Sea Level PressureIn, Min Sea Level PressureIn, Max VisibilityMiles, Mean VisibilityMiles, Min VisibilityMiles, Max Wind SpeedMPH, Mean Wind SpeedMPH, Max Gust SpeedMPH,PrecipitationIn, CloudCover, Events, WindDirDegrees
2012-11-1,42,36,29,30,22,12,79,56,39,29.96,29.87,29.82,10,10,10,15,5,21,0.00,7,,314
2012-11-2,41,30,21,27,22,19,92,70,43,30.19,30.08,29.97,10,10,10,9,2,,0.00,0,,14
2012-11-3,39,30,20,25,22,18,91,74,56,30.26,30.22,30.19,10,10,10,7,2,,0.00,3,,65
2012-11-4,42,28,15,25,20,13,95,78,49,30.26,30.22,30.18,10,10,7,7,1,,0.00,0,,73
2012-11-5,37,26,16,24,20,14,96,80,57,30.25,30.18,30.07,10,10,10,10,1,,0.00,1,,72
2012-11-6,32,26,21,32,30,18,100,95,86,30.08,29.90,29.81,10,4,0,10,4,,0.07,8,Fog-Rain-Snow,164
2012-11-7,37,34,31,33,32,32,100,97,84,30.13,30.07,29.91,10,3,0,6,1,,0.00,8,Fog,238
2012-11-8,46,38,30,34,32,29,99,83,61,30.13,30.06,29.98,10,8,4,16,4,21,0.00,3,,190
2012-11-9,42,34,27,38,34,26,99,89,79,30.09,30.06,30.03,10,7,2,14,4,21,0.00,6,,66
2012-11-10,59,48,36,52,43,35,98,90,73,30.06,29.84,29.69,10,6,2,17,11,25,0.01,6,Rain,107
2012-11-11,59,44,27,52,44,23,98,85,64,29.86,29.71,29.62,10,9,3,20,12,25,0.90,7,Rain,214
2012-11-12,27,24,20,22,14,11,81,69,57,30.25,30.01,29.87,10,10,4,15,3,31,0.00,8,Snow,270
2012-11-13,34,26,18,20,16,13,85,68,47,30.41,30.36,30.25,10,10,10,0,0,,0.00,1,Snow,-1
2012-11-14,46,38,29,29,25,20,78,64,49,30.40,30.32,30.26,10,10,10,13,3,16,0.00,2,,180
2012-11-15,49,38,27,29,28,24,90,69,46,30.37,30.25,30.20,10,10,10,12,7,,0.00,4,,206
2012-11-16,39,30,20,33,25,18,95,80,61,30.50,30.45,30.38,10,10,7,10,4,,0.00,3,,92
2012-11-17,48,40,32,36,33,31,100,82,58,30.46,30.42,30.38,10,6,0,10,6,,0.00,4,Fog,160
2012-11-18,53,42,31,32,30,29,90,65,40,30.38,30.30,30.25,10,8,5,15,6,20,0.00,0,,154
2012-11-19,48,40,33,37,34,30,91,72,57,30.25,30.14,30.06,10,10,7,12,3,,0.00,7,Rain,142
2012-11-20,55,41,26,39,34,26,99,83,52,30.14,30.11,30.06,10,6,0,6,1,,0.00,2,Fog,313
2012-11-21,57,41,25,40,36,25,100,81,49,30.14,30.02,29.90,10,6,0,16,5,22,0.00,3,Fog-Snow,197
2012-11-22,60,46,30,42,38,23,82,66,48,29.90,29.72,29.61,10,10,10,22,12,36,0.00,2,,210
2012-11-23,30,25,20,24,15,10,85,69,59,30.20,30.00,29.76,10,9,3,22,15,36,0.00,8,Snow,296
2012-11-24,27,22,17,20,11,9,84,62,49,30.22,30.10,29.84,10,10,3,13,7,17,0.00,6,Snow,256
2012-11-25,31,27,23,22,18,10,93,73,53,30.06,29.88,29.78,10,10,1,14,6,22,0.00,8,,274
2012-11-26,23,16,9,19,9,4,83,66,52,30.34,30.23,30.06,10,10,7,13,6,18,0.00,3,Snow,298
2012-11-27,29,17,5,16,9,2,85,64,46,30.33,30.21,30.11,10,10,5,15,5,21,0.00,4,Snow,229
2012-11-28,31,22,14,20,17,12,93,72,54,30.30,30.22,30.14,10,10,10,10,4,16,0.00,3,,253
2012-11-29,38,29,20,26,23,17,91,75,56,30.17,30.12,30.08,10,10,7,17,4,23,0.00,3,,76
2012-11-30,30,28,25,30,27,23,100,94,89,30.21,30.17,30.13,10,6,1,18,11,26,0.00,8,,68